Time,TemperatureF,DewpointF,PressureIn,WindDirection,WindDirectionDegrees,WindSpeedMPH,WindSpeedGustMPH,Humidity,HourlyPrecipIn,Conditions,Clouds,dailyrainin,SoftwareType,DateUTC
2013-06-23 00:07:00,69.1,67.0,29.98,WNW,292,0.0,-999.0,93,-99.99,,,0.00,weatherlink.com 1.10,2013-06-23 04:07:00,
2013-06-23 00:22:00,68.6,67.0,29.98,WNW,292,0.0,-999.0,93,-99.99,,,0.00,weatherlink.com 1.10,2013-06-23 04:22:00,
2013-06-23 00:37:00,68.0,66.0,29.99,WNW,292,0.0,-999.0,94,-99.99,,,0.00,weatherlink.com 1.10,2013-06-23 04:37:00,
2013-06-23 00:52:00,68.1,67.0,29.98,WNW,292,0.0,-999.0,95,-99.99,,,0.00,weatherlink.com 1.10,2013-06-23 04:52:00,
2013-06-23 01:07:00,68.2,67.0,29.97,WNW,292,0.0,-999.0,95,-99.99,,,0.00,weatherlink.com 1.10,2013-06-23 05:07:00,
2013-06-23 01:22:00,68.6,67.0,29.97,WNW,292,0.0,-999.0,95,-99.99,,,0.00,weatherlink.com 1.10,2013-06-23 05:22:00,
2013-06-23 01:37:00,69.3,68.0,29.97,West,271,0.0,-999.0,95,-99.99,,,0.00,weatherlink.com 1.10,2013-06-23 05:37:00,
2013-06-23 01:52:00,69.0,68.0,29.97,WSW,250,0.0,-999.0,95,-99.99,,,0.00,weatherlink.com 1.10,2013-06-23 05:52:00,
2013-06-23 02:07:00,69.6,69.0,29.98,SW,226,4.0,-999.0,96,-99.99,,,0.00,weatherlink.com 1.10,2013-06-23 06:07:00,
2013-06-23 02:22:00,70.4,69.0,29.98,SW,223,3.0,-999.0,95,-99.99,,,0.00,weatherlink.com 1.10,2013-06-23 06:22:00,
2013-06-23 02:37:00,70.3,69.0,29.97,SSW,207,1.0,-999.0,94,-99.99,,,0.00,weatherlink.com 1.10,2013-06-23 06:37:00,
2013-06-23 02:52:00,70.1,68.0,29.97,SW,219,4.0,-999.0,94,-99.99,,,0.00,weatherlink.com 1.10,2013-06-23 06:52:00,
2013-06-23 03:07:00,69.9,68.0,29.98,SW,222,5.0,-999.0,93,-99.99,,,0.00,weatherlink.com 1.10,2013-06-23 07:07:00,
2013-06-23 03:22:00,69.6,68.0,29.97,SW,223,0.0,-999.0,93,-99.99,,,0.00,weatherlink.com 1.10,2013-06-23 07:22:00,
2013-06-23 03:37:00,69.2,67.0,29.97,SW,223,0.0,-999.0,93,-99.99,,,0.00,weatherlink.com 1.10,2013-06-23 07:37:00,
2013-06-23 03:52:00,68.9,67.0,29.97,SSW,198,3.0,-999.0,93,-99.99,,,0.00,weatherlink.com 1.10,2013-06-23 07:52:00,
2013-06-23 04:07:00,68.6,67.0,29.97,SSW,197,1.0,-999.0,93,-99.99,,,0.00,weatherlink.com 1.10,2013-06-23 08:07:00,
2013-06-23 04:22:00,68.4,66.0,29.96,SSW,201,2.0,-999.0,93,-99.99,,,0.00,weatherlink.com 1.10,2013-06-23 08:22:00,
2013-06-23 04:37:00,67.9,66.0,29.96,SSW,201,0.0,-999.0,93,-99.99,,,0.00,weatherlink.com 1.10,2013-06-23 08:37:00,
2013-06-23 04:52:00,67.5,66.0,29.96,SSW,201,0.0,-999.0,94,-99.99,,,0.00,weatherlink.com 1.10,2013-06-23 08:52:00,
2013-06-23 05:07:00,67.2,66.0,29.96,SSW,201,0.0,-999.0,94,-99.99,,,0.00,weatherlink.com 1.10,2013-06-23 09:07:00,
2013-06-23 05:22:00,67.1,65.0,29.96,SSW,201,0.0,-999.0,94,-99.99,,,0.00,weatherlink.com 1.10,2013-06-23 09:22:00,
2013-06-23 05:37:00,66.7,65.0,29.97,SSW,201,0.0,-999.0,94,-99.99,,,0.00,weatherlink.com 1.10,2013-06-23 09:37:00,
2013-06-23 05:52:00,66.5,65.0,29.96,SSW,201,0.0,-999.0,94,-99.99,,,0.00,weatherlink.com 1.10,2013-06-23 09:52:00,
2013-06-23 06:07:00,66.2,65.0,29.95,SSW,201,0.0,-999.0,94,-99.99,,,0.00,weatherlink.com 1.10,2013-06-23 10:07:00,
2013-06-23 06:22:00,66.0,65.0,29.95,SSW,201,0.0,-999.0,95,-99.99,,,0.00,weatherlink.com 1.10,2013-06-23 10:22:00,
2013-06-23 06:37:00,66.3,65.0,29.96,SSW,201,0.0,-999.0,95,-99.99,,,0.00,weatherlink.com 1.10,2013-06-23 10:37:00,
2013-06-23 06:52:00,66.8,65.0,29.96,SSW,205,5.0,-999.0,95,-99.99,,,0.00,weatherlink.com 1.10,2013-06-23 10:52:00,
2013-06-23 07:07:00,67.3,66.0,29.97,South,188,4.0,-999.0,94,-99.99,,,0.00,weatherlink.com 1.10,2013-06-23 11:07:00,
2013-06-23 07:22:00,67.9,66.0,29.96,SSW,205,0.0,-999.0,93,-99.99,,,0.00,weatherlink.com 1.10,2013-06-23 11:22:00,
2013-06-23 07:37:00,68.6,66.0,29.96,SSW,199,7.0,-999.0,92,-99.99,,,0.00,weatherlink.com 1.10,2013-06-23 11:37:00,
2013-06-23 07:52:00,69.7,67.0,29.95,SSE,162,0.0,-999.0,90,-99.99,,,0.00,weatherlink.com 1.10,2013-06-23 11:52:00,
2013-06-23 08:07:00,70.6,67.0,29.95,South,180,5.0,-999.0,88,-99.99,,,0.00,weatherlink.com 1.10,2013-06-23 12:07:00,
2013-06-23 08:22:00,70.8,67.0,29.94,South,177,5.0,-999.0,86,-99.99,,,0.00,weatherlink.com 1.10,2013-06-23 12:22:00,
2013-06-23 08:37:00,71.6,67.0,29.94,SSW,198,9.0,-999.0,86,-99.99,,,0.00,weatherlink.com 1.10,2013-06-23 12:37:00,
2013-06-23 08:52:00,72.6,68.0,29.93,South,184,0.0,-999.0,84,-99.99,,,0.00,weatherlink.com 1.10,2013-06-23 12:52:00,
2013-06-23 09:07:00,73.2,67.0,29.93,SSE,154,10.0,-999.0,82,-99.99,,,0.00,weatherlink.com 1.10,2013-06-23 13:07:00,
2013-06-23 09:22:00,74.4,69.0,29.94,SSW,196,3.0,-999.0,82,-99.99,,,0.00,weatherlink.com 1.10,2013-06-23 13:22:00,
2013-06-23 09:37:00,75.1,69.0,29.94,SSW,203,0.0,-999.0,81,-99.99,,,0.00,weatherlink.com 1.10,2013-06-23 13:37:00,
2013-06-23 09:52:00,75.9,69.0,29.94,SSW,211,9.0,-999.0,79,-99.99,,,0.00,weatherlink.com 1.10,2013-06-23 13:52:00,
2013-06-23 10:07:00,76.2,69.0,29.95,SSW,202,7.0,-999.0,77,-99.99,,,0.00,weatherlink.com 1.10,2013-06-23 14:07:00,
2013-06-23 10:22:00,77.3,69.0,29.95,SW,227,6.0,-999.0,75,-99.99,,,0.00,weatherlink.com 1.10,2013-06-23 14:22:00,
2013-06-23 10:37:00,77.6,70.0,29.95,SSW,207,5.0,-999.0,76,-99.99,,,0.00,weatherlink.com 1.10,2013-06-23 14:37:00,
2013-06-23 10:52:00,78.5,69.0,29.95,SSW,207,4.0,-999.0,73,-99.99,,,0.00,weatherlink.com 1.10,2013-06-23 14:52:00,
2013-06-23 11:22:00,80.3,69.0,29.96,SSW,211,1.0,-999.0,68,-99.99,,,0.00,weatherlink.com 1.10,2013-06-23 15:22:00,
2013-06-23 11:37:00,81.4,69.0,29.96,SSE,161,4.0,-999.0,66,-99.99,,,0.00,weatherlink.com 1.10,2013-06-23 15:37:00,
2013-06-23 11:52:00,82.2,68.0,29.97,SSW,200,12.0,-999.0,62,-99.99,,,0.00,weatherlink.com 1.10,2013-06-23 15:52:00,
2013-06-23 12:07:00,83.0,69.0,29.96,WSW,239,7.0,-999.0,63,-99.99,,,0.00,weatherlink.com 1.10,2013-06-23 16:07:00,
2013-06-23 12:22:00,83.8,69.0,29.96,SSW,196,6.0,-999.0,61,-99.99,,,0.00,weatherlink.com 1.10,2013-06-23 16:22:00,
2013-06-23 12:37:00,84.0,68.0,29.96,SW,234,6.0,-999.0,58,-99.99,,,0.00,weatherlink.com 1.10,2013-06-23 16:37:00,
2013-06-23 12:52:00,84.6,67.0,29.96,SW,217,12.0,-999.0,55,-99.99,,,0.00,weatherlink.com 1.10,2013-06-23 16:52:00,
2013-06-23 13:07:00,84.3,66.0,29.96,WSW,240,8.0,-999.0,55,-99.99,,,0.00,weatherlink.com 1.10,2013-06-23 17:07:00,
2013-06-23 13:22:00,84.4,67.0,29.96,SSW,205,5.0,-999.0,57,-99.99,,,0.00,weatherlink.com 1.10,2013-06-23 17:22:00,
2013-06-23 13:37:00,84.0,67.0,29.96,SW,216,13.0,-999.0,57,-99.99,,,0.00,weatherlink.com 1.10,2013-06-23 17:37:00,
2013-06-23 13:52:00,83.5,66.0,29.96,SW,233,14.0,-999.0,56,-99.99,,,0.00,weatherlink.com 1.10,2013-06-23 17:52:00,
2013-06-23 14:07:00,83.7,67.0,29.96,SW,224,15.0,-999.0,58,-99.99,,,0.00,weatherlink.com 1.10,2013-06-23 18:07:00,
2013-06-23 14:22:00,83.5,67.0,29.96,SW,219,9.0,-999.0,58,-99.99,,,0.00,weatherlink.com 1.10,2013-06-23 18:22:00,
2013-06-23 14:37:00,83.2,68.0,29.96,SW,215,16.0,-999.0,60,-99.99,,,0.00,weatherlink.com 1.10,2013-06-23 18:37:00,
2013-06-23 14:52:00,83.0,68.0,29.96,WSW,255,12.0,-999.0,60,-99.99,,,0.00,weatherlink.com 1.10,2013-06-23 18:52:00,
2013-06-23 15:07:00,83.2,67.0,29.95,SW,223,11.0,-999.0,59,-99.99,,,0.00,weatherlink.com 1.10,2013-06-23 19:07:00,
2013-06-23 15:22:00,83.7,69.0,29.95,SSW,212,17.0,-999.0,61,-99.99,,,0.00,weatherlink.com 1.10,2013-06-23 19:22:00,
2013-06-23 15:37:00,84.1,69.0,29.94,SW,218,13.0,-999.0,60,-99.99,,,0.00,weatherlink.com 1.10,2013-06-23 19:37:00,
2013-06-23 15:52:00,85.2,70.0,29.94,SSW,201,6.0,-999.0,60,-99.99,,,0.00,weatherlink.com 1.10,2013-06-23 19:52:00,
2013-06-23 16:07:00,84.5,68.0,29.94,SW,232,10.0,-999.0,57,-99.99,,,0.00,weatherlink.com 1.10,2013-06-23 20:07:00,
2013-06-23 16:22:00,85.0,69.0,29.94,WSW,243,16.0,-999.0,58,-99.99,,,0.00,weatherlink.com 1.10,2013-06-23 20:22:00,
2013-06-23 16:37:00,84.6,68.0,29.93,WSW,252,11.0,-999.0,57,-99.99,,,0.00,weatherlink.com 1.10,2013-06-23 20:37:00,
2013-06-23 16:52:00,85.0,69.0,29.93,SSW,192,8.0,-999.0,59,-99.99,,,0.00,weatherlink.com 1.10,2013-06-23 20:52:00,
2013-06-23 17:07:00,84.7,68.0,29.93,SW,231,9.0,-999.0,58,-99.99,,,0.00,weatherlink.com 1.10,2013-06-23 21:07:00,
2013-06-23 17:22:00,84.5,68.0,29.92,SW,223,11.0,-999.0,58,-99.99,,,0.00,weatherlink.com 1.10,2013-06-23 21:22:00,
2013-06-23 17:37:00,84.4,67.0,29.91,WSW,244,5.0,-999.0,57,-99.99,,,0.00,weatherlink.com 1.10,2013-06-23 21:37:00,
2013-06-23 17:52:00,84.7,68.0,29.92,SW,226,3.0,-999.0,57,-99.99,,,0.00,weatherlink.com 1.10,2013-06-23 21:52:00,
2013-06-23 18:07:00,84.4,67.0,29.91,SSW,207,5.0,-999.0,57,-99.99,,,0.00,weatherlink.com 1.10,2013-06-23 22:07:00,
2013-06-23 18:22:00,84.3,68.0,29.91,SW,214,6.0,-999.0,58,-99.99,,,0.00,weatherlink.com 1.10,2013-06-23 22:22:00,
2013-06-23 18:37:00,84.1,68.0,29.91,SW,216,7.0,-999.0,59,-99.99,,,0.00,weatherlink.com 1.10,2013-06-23 22:37:00,
2013-06-23 18:52:00,83.8,66.0,29.90,SSW,205,9.0,-999.0,55,-99.99,,,0.00,weatherlink.com 1.10,2013-06-23 22:52:00,
2013-06-23 19:07:00,83.6,66.0,29.90,SW,214,5.0,-999.0,56,-99.99,,,0.00,weatherlink.com 1.10,2013-06-23 23:07:00,
2013-06-23 19:22:00,83.6,68.0,29.89,SSW,201,2.0,-999.0,59,-99.99,,,0.00,weatherlink.com 1.10,2013-06-23 23:22:00,
2013-06-23 19:37:00,82.3,68.0,29.88,SSE,162,1.0,-999.0,63,-99.99,,,0.00,weatherlink.com 1.10,2013-06-23 23:37:00,
2013-06-23 19:52:00,82.2,68.0,29.90,SSW,208,5.0,-999.0,63,-99.99,,,0.00,weatherlink.com 1.10,2013-06-23 23:52:00,
2013-06-23 20:07:00,81.7,69.0,29.90,SSW,198,4.0,-999.0,65,-99.99,,,0.00,weatherlink.com 1.10,2013-06-24 00:07:00,
2013-06-23 20:22:00,81.6,70.0,29.90,SSW,200,5.0,-999.0,67,-99.99,,,0.00,weatherlink.com 1.10,2013-06-24 00:22:00,
2013-06-23 20:37:00,81.1,70.0,29.90,SW,222,5.0,-999.0,68,-99.99,,,0.00,weatherlink.com 1.10,2013-06-24 00:37:00,
2013-06-23 20:52:00,80.4,70.0,29.90,SW,223,4.0,-999.0,70,-99.99,,,0.00,weatherlink.com 1.10,2013-06-24 00:52:00,
2013-06-23 21:08:00,79.3,70.0,29.90,SW,216,0.0,-999.0,72,-99.99,,,0.00,weatherlink.com 1.10,2013-06-24 01:08:00,
2013-06-23 21:22:00,78.2,69.0,29.90,SW,216,0.0,-999.0,74,-99.99,,,0.00,weatherlink.com 1.10,2013-06-24 01:22:00,
2013-06-23 21:37:00,77.7,69.0,29.90,SW,216,0.0,-999.0,74,-99.99,,,0.00,weatherlink.com 1.10,2013-06-24 01:37:00,
2013-06-23 21:52:00,76.8,69.0,29.90,SW,217,0.0,-999.0,76,-99.99,,,0.00,weatherlink.com 1.10,2013-06-24 01:52:00,
2013-06-23 22:07:00,76.6,69.0,29.92,SW,229,5.0,-999.0,76,-99.99,,,0.00,weatherlink.com 1.10,2013-06-24 02:07:00,
2013-06-23 22:22:00,77.1,69.0,29.92,SW,221,4.0,-999.0,75,-99.99,,,0.00,weatherlink.com 1.10,2013-06-24 02:22:00,
2013-06-23 22:37:00,77.3,68.0,29.93,SW,215,7.0,-999.0,73,-99.99,,,0.00,weatherlink.com 1.10,2013-06-24 02:37:00,
2013-06-23 22:52:00,76.9,68.0,29.94,SW,235,8.0,-999.0,73,-99.99,,,0.00,weatherlink.com 1.10,2013-06-24 02:52:00,
2013-06-23 23:07:00,76.7,68.0,29.95,SW,218,1.0,-999.0,74,-99.99,,,0.00,weatherlink.com 1.10,2013-06-24 03:07:00,
2013-06-23 23:22:00,76.0,68.0,29.95,SW,216,5.0,-999.0,76,-99.99,,,0.00,weatherlink.com 1.10,2013-06-24 03:22:00,
2013-06-23 23:37:00,75.6,68.0,29.95,SW,221,4.0,-999.0,78,-99.99,,,0.00,weatherlink.com 1.10,2013-06-24 03:37:00,
2013-06-23 23:52:00,75.0,68.0,29.95,SW,218,3.0,-999.0,80,-99.99,,,0.00,weatherlink.com 1.10,2013-06-24 03:52:00,